Colby, KS

3:26 PM CDT on September 23, 2017 (GMT -0500)
Shaltz

Weather History for KCBK - July, 2013

Change the Weather History Date:

Wednesday, July 10, 2013

  Actual Average (KGLD) Record (KGLD)
Temperature  
Mean Temperature 79 °F -  
Max Temperature 89 °F 91 °F 107 °F (1954)
Min Temperature 69 °F 61 °F 47 °F (1895)
Cooling Degree Days 14    
Growing Degree Days 29 (Base 50)    
Moisture  
Dew Point 66 °F    
Average Humidity 65    
Maximum Humidity 94    
Minimum Humidity 46    
Precipitation  
Precipitation 0.00 in - - ()
Sea Level Pressure  
Sea Level Pressure 30.13 in    
Wind  
Wind Speed 11 mph (ENE)    
Max Wind Speed 24 mph    
Max Gust Speed 34 mph    
Visibility 10 miles    
Events Rain    
Averages and records for this station are not official NWS values.
T = Trace of Precipitation, MM = Missing Value Source: NWS Daily Summary

Daily Weather History Graph

Daily Weather History Graph

Search for Another Location

Airport or City:

Trip Planner

Search our weather history database for the weather conditions in past years. The results will help you decide how hot, cold, wet, or windy it might be!

Date:

Astronomy

Jul. 10, 2013 Rise Set
Actual Time 6:26 AM CDT 9:12 PM CDT
Civil Twilight 5:54 AM CDT 9:44 PM CDT
Nautical Twilight 5:14 AM CDT 10:24 PM CDT
Astronomical Twilight 4:29 AM CDT 11:09 PM CDT
Moon 8:48 AM CDT (7/10) 10:24 PM CDT (7/10)
Length of Visible Light 15h 49m
Length of Day
14h 46m
Waxing Crescent, 5% of the Moon is Illuminated
Jul 10
Waxing Crescent
Jul 15
First Quarter
Jul 22
Full
Jul 29
Last Quarter
Aug 6
New

Hourly Weather History & Observations

Time (CDT) Temp. Heat Index Dew Point Humidity Pressure Visibility Wind Dir Wind Speed Gust Speed Precip Events Conditions
12:15 AM 71.6 °F - 60.8 °F 69% 30.10 in 10.0 mi South 3.5 mph - N/A   Clear
12:35 AM 69.8 °F - 60.8 °F 73% 30.12 in 10.0 mi Calm Calm - N/A   Clear
12:55 AM 71.6 °F - 62.6 °F 73% 30.15 in 10.0 mi NNE 10.4 mph - N/A   Clear
1:15 AM 73.4 °F - 62.6 °F 69% 30.17 in 10.0 mi North 6.9 mph - N/A   Clear
1:35 AM 73.4 °F - 64.4 °F 73% 30.19 in 10.0 mi North 9.2 mph - N/A   Mostly Cloudy
1:55 AM 75.2 °F - 62.6 °F 65% 30.19 in 10.0 mi NNW 4.6 mph - N/A   Overcast
2:15 AM 73.4 °F - 64.4 °F 73% 30.18 in 10.0 mi North 18.4 mph 21.9 mph N/A Rain Light Rain
2:55 AM 71.6 °F - 64.4 °F 78% 30.19 in 10.0 mi NNE 19.6 mph 23.0 mph N/A   Clear
3:15 AM 71.6 °F - 60.8 °F 69% 30.16 in 10.0 mi NE 17.3 mph 29.9 mph N/A   Clear
3:35 AM 71.6 °F - 59.0 °F 64% 30.15 in 10.0 mi ENE 11.5 mph 18.4 mph N/A   Clear
3:55 AM 71.6 °F - 59.0 °F 64% 30.14 in 10.0 mi East 5.8 mph - N/A Rain Light Rain
4:15 AM 69.8 °F - 62.6 °F 78% 30.14 in 10.0 mi NE 6.9 mph - N/A   Mostly Cloudy
4:35 AM 69.8 °F - 60.8 °F 73% 30.14 in 10.0 mi NE 10.4 mph - N/A   Scattered Clouds
4:55 AM 69.8 °F - 60.8 °F 73% 30.12 in 10.0 mi SSE 9.2 mph - N/A   Clear
5:15 AM 69.8 °F - 60.8 °F 73% 30.13 in 10.0 mi Calm Calm - N/A   Clear
5:35 AM 69.8 °F - 60.8 °F 73% 30.14 in 10.0 mi North 15.0 mph 19.6 mph N/A   Clear
5:55 AM 69.8 °F - 60.8 °F 73% 30.14 in 10.0 mi North 15.0 mph 20.7 mph N/A Rain Light Rain
6:15 AM 69.8 °F - 59.0 °F 68% 30.13 in 10.0 mi Calm Calm - N/A   Clear
6:35 AM 69.8 °F - 60.8 °F 73% 30.14 in 10.0 mi WNW 5.8 mph - N/A   Clear
6:55 AM 69.8 °F - 60.8 °F 73% 30.16 in 10.0 mi North 11.5 mph - N/A   Clear
7:15 AM 69.8 °F - 60.8 °F 73% 30.16 in 10.0 mi North 11.5 mph - N/A   Clear
7:35 AM 69.8 °F - 68.0 °F 94% 30.18 in 10.0 mi North 11.5 mph - N/A   Clear
7:55 AM 71.6 °F - 68.0 °F 88% 30.17 in 10.0 mi North 5.8 mph - N/A   Clear
8:15 AM 71.6 °F - 68.0 °F 88% 30.16 in 10.0 mi NE 11.5 mph - N/A   Clear
8:35 AM 73.4 °F - 69.8 °F 88% 30.14 in 10.0 mi East 13.8 mph 18.4 mph N/A   Clear
8:55 AM 73.4 °F - 68.0 °F 83% 30.13 in 10.0 mi East 17.3 mph 23.0 mph N/A   Clear
9:15 AM 71.6 °F - 68.0 °F 88% 30.17 in 10.0 mi East 8.1 mph - N/A   Mostly Cloudy
9:35 AM 73.4 °F - 68.0 °F 83% 30.17 in 10.0 mi East 10.4 mph - N/A   Mostly Cloudy
9:55 AM 73.4 °F - 68.0 °F 83% 30.18 in 10.0 mi East 9.2 mph - N/A   Scattered Clouds
10:15 AM 75.2 °F - 68.0 °F 78% 30.17 in 10.0 mi East 12.7 mph - N/A   Scattered Clouds
10:35 AM 77.0 °F - 69.8 °F 78% 30.18 in 10.0 mi East 12.7 mph 16.1 mph N/A   Clear
10:55 AM 78.8 °F - 69.8 °F 74% 30.20 in 10.0 mi ENE 15.0 mph - N/A   Scattered Clouds
11:15 AM 78.8 °F - 68.0 °F 69% 30.20 in 10.0 mi ENE 11.5 mph 17.3 mph N/A   Scattered Clouds
11:35 AM 80.6 °F 83.2 °F 68.0 °F 65% 30.20 in 10.0 mi NE 10.4 mph 16.1 mph N/A   Clear
11:55 AM 80.6 °F 83.2 °F 68.0 °F 65% 30.19 in 10.0 mi East 12.7 mph 18.4 mph N/A   Clear
12:15 PM 82.4 °F 85.4 °F 68.0 °F 62% 30.20 in 10.0 mi East 11.5 mph - N/A   Clear
12:35 PM 84.2 °F 88.4 °F 69.8 °F 62% 30.19 in 10.0 mi ENE 10.4 mph - N/A   Clear
12:55 PM 82.4 °F 85.4 °F 68.0 °F 62% 30.18 in 10.0 mi East 12.7 mph 17.3 mph N/A   Scattered Clouds
1:15 PM 84.2 °F 87.3 °F 68.0 °F 58% 30.18 in 10.0 mi East 11.5 mph 17.3 mph N/A   Clear
1:35 PM 86.0 °F 89.4 °F 68.0 °F 55% 30.18 in 10.0 mi East 12.7 mph 17.3 mph N/A   Clear
1:55 PM 86.0 °F 90.4 °F 69.8 °F 58% 30.17 in 10.0 mi East 11.5 mph 17.3 mph N/A   Clear
2:15 PM 86.0 °F 90.4 °F 69.8 °F 58% 30.17 in 10.0 mi ENE 15.0 mph 19.6 mph N/A   Clear
2:35 PM 87.8 °F 92.6 °F 69.8 °F 55% 30.17 in 10.0 mi ENE 12.7 mph 20.7 mph N/A   Scattered Clouds
2:55 PM 87.8 °F 92.6 °F 69.8 °F 55% 30.15 in 10.0 mi East 18.4 mph 24.2 mph N/A   Scattered Clouds
3:15 PM 89.6 °F 94.7 °F 69.8 °F 52% 30.15 in 10.0 mi ESE 11.5 mph 24.2 mph N/A   Scattered Clouds
3:35 PM 89.6 °F 93.4 °F 68.0 °F 49% 30.14 in 10.0 mi East 13.8 mph 25.3 mph N/A   Scattered Clouds
3:55 PM 89.6 °F 93.4 °F 68.0 °F 49% 30.13 in 10.0 mi East 16.1 mph 21.9 mph N/A   Scattered Clouds
4:15 PM 89.6 °F 93.4 °F 68.0 °F 49% 30.12 in 10.0 mi East 18.4 mph 26.5 mph N/A   Mostly Cloudy
4:35 PM 89.6 °F 93.4 °F 68.0 °F 49% 30.10 in 10.0 mi East 23.0 mph 27.6 mph N/A   Scattered Clouds
4:55 PM 89.6 °F 93.4 °F 68.0 °F 49% 30.09 in 10.0 mi East 19.6 mph 26.5 mph N/A   Scattered Clouds
5:15 PM 89.6 °F 93.4 °F 68.0 °F 49% 30.09 in 10.0 mi East 23.0 mph 29.9 mph N/A   Clear
5:35 PM 89.6 °F 92.2 °F 66.2 °F 46% 30.08 in 10.0 mi East 21.9 mph 33.4 mph N/A   Clear
5:55 PM 89.6 °F 92.2 °F 66.2 °F 46% 30.07 in 10.0 mi East 24.2 mph 31.1 mph N/A   Clear
6:15 PM 89.6 °F 92.2 °F 66.2 °F 46% 30.08 in 10.0 mi East 20.7 mph 29.9 mph N/A   Clear
6:35 PM 87.8 °F 89.4 °F 64.4 °F 46% 30.08 in 10.0 mi East 20.7 mph 34.5 mph N/A   Clear
6:55 PM 86.0 °F 87.3 °F 64.4 °F 48% 30.07 in 10.0 mi East 19.6 mph 28.8 mph N/A   Clear
7:15 PM 86.0 °F 87.3 °F 64.4 °F 48% 30.06 in 10.0 mi East 23.0 mph 28.8 mph N/A   Clear
7:35 PM 84.2 °F 85.6 °F 64.4 °F 51% 30.06 in 2.5 mi East 21.9 mph 27.6 mph N/A   Haze
7:55 PM 82.4 °F 83.9 °F 64.4 °F 54% 30.06 in 10.0 mi East 18.4 mph 24.2 mph N/A   Clear
8:15 PM 82.4 °F 83.9 °F 64.4 °F 54% 30.06 in 5.0 mi East 16.1 mph - N/A   Haze
8:35 PM 82.4 °F 83.9 °F 64.4 °F 54% 30.05 in 5.0 mi East 13.8 mph - N/A   Haze
8:55 PM 80.6 °F 82.3 °F 64.4 °F 58% 30.07 in 10.0 mi East 9.2 mph - N/A   Clear
9:15 PM 80.6 °F 82.7 °F 66.2 °F 61% 30.09 in 10.0 mi ESE 11.5 mph - N/A   Clear
9:35 PM 80.6 °F 83.2 °F 68.0 °F 65% 30.09 in 10.0 mi ESE 13.8 mph - N/A   Clear
9:55 PM 80.6 °F 83.2 °F 68.0 °F 65% 30.10 in 10.0 mi ESE 11.5 mph - N/A   Clear
10:15 PM 80.6 °F 83.2 °F 68.0 °F 65% 30.10 in 10.0 mi ESE 10.4 mph - N/A   Clear
10:35 PM 78.8 °F - 68.0 °F 69% 30.09 in 10.0 mi ESE 10.4 mph - N/A   Clear
10:55 PM 78.8 °F - 66.2 °F 65% 30.08 in 10.0 mi ESE 10.4 mph - N/A   Clear
11:15 PM 78.8 °F - 66.2 °F 65% 30.08 in 10.0 mi SE 10.4 mph - N/A   Clear
11:35 PM 78.8 °F - 66.2 °F 65% 30.09 in 10.0 mi SSE 9.2 mph - N/A   Clear
11:55 PM 78.8 °F - 68.0 °F 69% 30.12 in 10.0 mi South 5.8 mph - N/A   Scattered Clouds